Ubon Ratchathani, Thailand

12:17 PM +07 on November 18, 2017 (GMT +0700)
Ubon Ratchathani

Weather History for VTUU - November, 2012

Change the Weather History Date:

Sunday, November 4, 2012

  Actual Average Record
Temperature  
Mean Temperature 84 °F -  
Max Temperature 94 °F 87 °F - ()
Min Temperature 73 °F 67 °F - ()
Cooling Degree Days 18    
Growing Degree Days 34 (Base 50)    
Moisture  
Dew Point 70 °F    
Average Humidity 66    
Maximum Humidity 94    
Minimum Humidity 38    
Precipitation  
Precipitation 0.00 in 0.03 in - ()
Sea Level Pressure  
Sea Level Pressure 29.80 in    
Wind  
Wind Speed 1 mph ()    
Max Wind Speed 5 mph    
Max Gust Speed -    
Visibility 5.7 miles    
Events      
T = Trace of Precipitation, MM = Missing Value Source: Averaged Metar Reports

Daily Weather History Graph

Daily Weather History Graph

Search for Another Location

Airport or City:

Trip Planner

Search our weather history database for the weather conditions in past years. The results will help you decide how hot, cold, wet, or windy it might be!

Date:

Astronomy

Nov. 04, 2012 Rise Set
Actual Time 5:57 AM +07 5:30 PM +07
Civil Twilight 5:35 AM +07 5:52 PM +07
Nautical Twilight 5:09 AM +07 6:18 PM +07
Astronomical Twilight 4:44 AM +07 6:43 PM +07
Moon 9:47 PM +07 (11/4) 10:07 AM +07 (11/4)
Length of Visible Light 12h 16m
Length of Day
11h 32m
Waning Gibbous, 76% of the Moon is Illuminated
Nov 4
Waning Gibbous
Nov 7
Last Quarter
Nov 14
New
Nov 20
First Quarter
Nov 28
Full

Hourly Weather History & Observations

Time (+07) Temp. Heat Index Dew Point Humidity Pressure Visibility Wind Dir Wind Speed Gust Speed Precip Events Conditions
12:00 AM 80.6 °F 83.2 °F 68.0 °F 65% 29.83 in 5.0 mi Calm Calm - N/A   Unknown
1:00 AM 78 °F - 70 °F 70% 29.85 in 5 mi Calm Calm - -   Mist
1:00 AM 78.8 °F - 69.8 °F 74% 29.83 in 5.0 mi Calm Calm - N/A   Unknown
3:00 AM 77.0 °F - 71.6 °F 83% 29.80 in 5.6 mi Calm Calm - N/A   Unknown
4:00 AM 75.2 °F - 71.6 °F 89% 29.80 in 5.6 mi Calm Calm - N/A   Unknown
5:00 AM 73.4 °F - 71.6 °F 94% 29.83 in 5.6 mi Calm Calm - N/A   Unknown
6:00 AM 73.4 °F - 71.6 °F 94% 29.83 in 5.0 mi Calm Calm - N/A   Unknown
6:30 AM 73.4 °F - 69.8 °F 88% 29.83 in 5.0 mi Calm Calm - N/A   Unknown
7:00 AM 74 °F - 71 °F 86% 29.86 in 6 mi NE 2.3 mph - -   Mist
7:00 AM 75.2 °F - 69.8 °F 83% 29.83 in 5.6 mi NE 2.3 mph - N/A   Unknown
8:00 AM 78.8 °F - 71.6 °F 78% 29.86 in 6.2 mi NE 3.5 mph - N/A   Unknown
9:00 AM 80.6 °F 84.6 °F 71.6 °F 74% 29.89 in 6.2 mi NE 3.5 mph - N/A   Unknown
10:00 AM 86.0 °F 93.4 °F 73.4 °F 66% 29.86 in 6.2 mi NNE 3.5 mph - N/A   Unknown
11:00 AM 89.6 °F 96.2 °F 71.6 °F 55% 29.83 in 6.2 mi North 4.6 mph - N/A   Scattered Clouds
12:00 PM 89.6 °F 93.4 °F 68.0 °F 49% 29.80 in 6.2 mi NW 2.3 mph - N/A   Scattered Clouds
1:00 PM 91 °F - 69 °F 38% 29.79 in 6 mi East 2.3 mph - -   Partly Cloudy
1:00 PM 91.4 °F 95.4 °F 68.0 °F 46% 29.77 in 6.2 mi East 2.3 mph - N/A   Scattered Clouds
2:00 PM 93.2 °F 98.8 °F 69.8 °F 46% 29.74 in 6.2 mi North 2.3 mph - N/A   Scattered Clouds
3:00 PM 91.4 °F 96.8 °F 69.8 °F 49% 29.74 in 6.2 mi NNW 2.3 mph - N/A   Scattered Clouds
4:00 PM 91.4 °F 95.4 °F 68.0 °F 46% 29.74 in 6.2 mi NNW 3.5 mph - N/A   Scattered Clouds
5:00 PM 91.4 °F 95.4 °F 68.0 °F 46% 29.74 in 6.2 mi NW 2.3 mph - N/A   Scattered Clouds
5:30 PM 91.4 °F 95.4 °F 68.0 °F 46% 29.74 in 5.6 mi NW 2.3 mph - N/A   Unknown
6:00 PM 87.8 °F 90.4 °F 66.2 °F 49% 29.74 in 5.6 mi NNW 2.3 mph - N/A   Unknown
7:00 PM 86 °F - 69 °F 47% 29.76 in 6 mi NNE 2.3 mph - -   Haze
7:00 PM 86.0 °F 90.4 °F 69.8 °F 58% 29.74 in 5.6 mi NNE 2.3 mph - N/A   Unknown
8:00 PM 84.2 °F 88.4 °F 69.8 °F 62% 29.80 in 5.6 mi NNE 2.3 mph - N/A   Unknown
9:00 PM 82.4 °F 87.2 °F 71.6 °F 70% 29.80 in 5.6 mi North 1.2 mph - N/A   Unknown
10:00 PM 80.6 °F 84.6 °F 71.6 °F 74% 29.83 in 5.6 mi NNE 2.3 mph - N/A   Unknown
11:00 PM 78.8 °F - 71.6 °F 78% 29.83 in 5.6 mi North 1.2 mph - N/A   Unknown